TimeEST,TemperatureF,Dew PointF,Humidity,Sea Level PressureIn,VisibilityMPH,Wind Direction,Wind SpeedMPH,Gust SpeedMPH,PrecipitationIn,Events,Conditions,WindDirDegrees,DateUTC
12:52 AM,39.9,37.0,89,30.26,10.0,Calm,Calm,-,0.01,Rain,Light Rain,0,2013-01-12 05:52:00
1:38 AM,39.2,35.6,87,30.24,4.0,SE,3.5,-,0.02,Rain,Light Rain,130,2013-01-12 06:38:00
1:50 AM,39.2,37.4,93,30.25,5.0,Calm,Calm,-,0.02,Rain,Light Rain,0,2013-01-12 06:50:00
1:52 AM,39.0,37.0,93,30.25,5.0,Calm,Calm,-,0.02,Rain,Light Rain,0,2013-01-12 06:52:00
2:19 AM,39.2,37.4,93,30.23,8.0,SE,3.5,-,0.00,Rain,Light Rain,130,2013-01-12 07:19:00
2:47 AM,39.2,39.2,100,30.20,6.0,SSE,3.5,-,0.01,,Overcast,150,2013-01-12 07:47:00
2:52 AM,39.9,39.0,97,30.21,7.0,SE,3.5,-,0.01,,Overcast,140,2013-01-12 07:52:00
3:11 AM,41.0,39.2,93,30.20,10.0,SE,3.5,-,N/A,,Overcast,130,2013-01-12 08:11:00
3:21 AM,41.0,39.2,93,30.20,10.0,Calm,Calm,-,N/A,,Overcast,0,2013-01-12 08:21:00
3:28 AM,41.0,39.2,93,30.20,10.0,SE,4.6,-,N/A,,Overcast,130,2013-01-12 08:28:00
3:52 AM,41.0,39.0,93,30.20,10.0,SE,5.8,-,N/A,,Overcast,130,2013-01-12 08:52:00
4:41 AM,41.0,37.4,87,30.17,10.0,ESE,3.5,-,N/A,,Overcast,120,2013-01-12 09:41:00
4:52 AM,42.1,37.9,85,30.18,10.0,ESE,4.6,-,N/A,,Overcast,110,2013-01-12 09:52:00
5:52 AM,42.1,39.0,89,30.18,10.0,SE,5.8,-,N/A,,Overcast,130,2013-01-12 10:52:00
6:52 AM,42.1,39.0,89,30.18,10.0,SE,4.6,-,N/A,,Overcast,140,2013-01-12 11:52:00
7:10 AM,42.8,39.2,87,30.17,10.0,SE,5.8,-,N/A,,Overcast,140,2013-01-12 12:10:00
7:30 AM,42.8,39.2,87,30.17,10.0,SE,5.8,-,N/A,,Overcast,130,2013-01-12 12:30:00
7:52 AM,43.0,41.0,93,30.19,10.0,ESE,5.8,-,N/A,,Overcast,120,2013-01-12 12:52:00
8:17 AM,42.8,41.0,93,30.17,10.0,ESE,5.8,-,N/A,,Overcast,110,2013-01-12 13:17:00
8:52 AM,44.1,42.1,93,30.20,10.0,ESE,5.8,-,N/A,,Overcast,120,2013-01-12 13:52:00
9:26 AM,44.6,41.0,87,30.19,10.0,ESE,4.6,-,N/A,,Overcast,110,2013-01-12 14:26:00
9:52 AM,45.0,41.0,86,30.20,10.0,ESE,5.8,-,N/A,,Overcast,120,2013-01-12 14:52:00
10:52 AM,45.0,41.0,86,30.19,10.0,ESE,4.6,-,N/A,,Overcast,120,2013-01-12 15:52:00
12:52 PM,46.0,39.9,79,30.15,10.0,ESE,5.8,-,N/A,,Overcast,120,2013-01-12 17:52:00
1:52 PM,46.0,39.0,76,30.15,10.0,ESE,5.8,-,N/A,,Overcast,120,2013-01-12 18:52:00
2:52 PM,45.0,39.9,82,30.19,10.0,ESE,4.6,-,N/A,,Overcast,110,2013-01-12 19:52:00
3:52 PM,45.0,39.9,82,30.17,10.0,Calm,Calm,-,N/A,,Overcast,0,2013-01-12 20:52:00
4:52 PM,45.0,39.9,82,30.17,10.0,Calm,Calm,-,N/A,,Overcast,0,2013-01-12 21:52:00
5:52 PM,44.1,39.9,85,30.15,10.0,Calm,Calm,-,N/A,,Overcast,0,2013-01-12 22:52:00
6:52 PM,42.1,39.0,89,30.18,10.0,Calm,Calm,-,N/A,,Mostly Cloudy,0,2013-01-12 23:52:00
7:52 PM,39.0,37.0,93,30.17,10.0,Calm,Calm,-,N/A,,Overcast,0,2013-01-13 00:52:00
8:25 PM,39.2,37.4,93,30.16,10.0,Calm,Calm,-,N/A,,Partly Cloudy,0,2013-01-13 01:25:00
8:52 PM,37.9,36.0,93,30.16,10.0,Calm,Calm,-,N/A,,Clear,0,2013-01-13 01:52:00
9:52 PM,37.9,35.1,89,30.16,10.0,Calm,Calm,-,N/A,,Scattered Clouds,0,2013-01-13 02:52:00
10:39 PM,39.2,37.4,93,30.16,9.0,Calm,Calm,-,N/A,,Overcast,0,2013-01-13 03:39:00
10:52 PM,39.9,37.9,93,30.17,9.0,Calm,Calm,-,N/A,,Overcast,0,2013-01-13 03:52:00
11:52 PM,42.1,41.0,96,30.15,10.0,Calm,Calm,-,N/A,,Overcast,0,2013-01-13 04:52:00